KI6IKQ Weather Reports


time (UTC)temp
C
wind
direction
speed
KPH
gust
KPH
rain 1hr
cm
rain 24hr
cm
rain mn
cm
humidity
%
barometer
mb
20260502123624 12 326 1.6 3.2 0.00 0.00 0.00 88 1010.4
20260502122724 12 321 1.6 3.2 0.00 0.00 0.00 88 1010.4
20260502121803 12 327 1.6 4.8 0.00 0.00 0.00 88 1010.4
20260502120903 12 322 1.6 4.8 0.00 0.00 0.00 88 1010.4
20260502115403 12 317 1.6 6.4 0.00 0.00 0.00 88 1010.4
20260502113603 12 339 1.6 4.8 0.00 0.00 0.00 88 1010.7
20260502112703 12 329 3.2 6.4 0.00 0.00 0.00 88 1010.7
20260502111824 12 317 1.6 4.8 0.00 0.00 0.00 88 1010.6
20260502110924 12 297 1.6 4.8 0.00 0.00 0.00 88 1010.6
20260502110003 12 318 1.6 3.2 0.00 0.00 0.00 87 1010.7
20260502105403 12 319 1.6 3.2 0.00 0.00 0.00 87 1010.7
20260502104503 12 314 1.6 3.2 0.00 0.00 0.00 87 1010.7
20260502103603 12 330 1.6 4.8 0.00 0.00 0.00 87 1010.8
20260502102703 12 320 1.6 3.2 0.00 0.00 0.00 86 1010.8
20260502101824 12 334 1.6 3.2 0.00 0.00 0.00 86 1010.7
20260502100903 12 318 1.6 4.8 0.00 0.00 0.00 86 1010.8
20260502090903 13 319 1.6 3.2 0.00 0.00 0.00 83 1011.0
20260502070903 15 298 1.6 4.8 0.00 0.00 0.00 75 1011.1
20260502070003 15 299 1.6 6.4 0.00 0.00 0.00 75 1011.1
20260502065403 16 309 1.6 4.8 0.00 0.00 0.00 74 1011.0
20260502064503 16 325 1.6 6.4 0.00 0.00 0.00 74 1011.0
20260502063603 16 322 1.6 6.4 0.00 0.00 0.00 73 1011.0
20260502062703 16 293 1.6 6.4 0.00 0.00 0.00 72 1011.0
20260502061803 16 315 1.6 12.9 0.00 0.00 0.00 72 1011.0
20260502060903 16 312 1.6 6.4 0.00 0.00 0.00 72 1011.0
20260502060003 16 309 1.6 4.8 0.00 0.00 0.00 71 1011.2
20260502055425 17 298 1.6 4.8 0.00 0.00 0.00 71 1011.2
20260502054503 17 295 1.6 6.4 0.00 0.00 0.00 70 1011.1
20260502053603 17 283 1.6 4.8 0.00 0.00 0.00 70 1011.1
20260502052703 17 306 1.6 4.8 0.00 0.00 0.00 70 1011.0
20260502051824 17 309 1.6 4.8 0.00 0.00 0.00 70 1011.2
20260502050924 17 346 1.6 4.8 0.00 0.00 0.00 69 1011.2
20260502050024 18 304 1.6 4.8 0.00 0.00 0.00 68 1011.3
20260502045424 18 283 1.6 4.8 0.00 0.00 0.00 68 1011.2
20260502044524 18 286 1.6 4.8 0.00 0.00 0.00 67 1011.2
20260502043624 18 282 1.6 4.8 0.00 0.00 0.00 65 1011.1
20260502042724 19 286 1.6 4.8 0.00 0.00 0.00 64 1010.9
20260502041824 19 291 1.6 6.4 0.00 0.00 0.00 63 1011.0
20260502040924 20 315 1.6 6.4 0.00 0.00 0.00 62 1010.9
20260502040024 20 316 3.2 6.4 0.00 0.00 0.00 61 1010.7
20260502035403 20 308 1.6 6.4 0.00 0.00 0.00 59 1010.5
20260502034503 21 319 1.6 6.4 0.00 0.00 0.00 58 1010.5
20260502033603 21 315 3.2 6.4 0.00 0.00 0.00 56 1010.4
20260502032703 21 317 3.2 9.7 0.00 0.00 0.00 55 1010.2
20260502031805 22 319 1.6 6.4 0.00 0.00 0.00 52 1010.2
20260502030924 22 318 1.6 6.4 0.00 0.00 0.00 51 1010.1
20260502030024 23 310 1.6 8.0 0.00 0.00 0.00 49 1009.9
20260502025424 24 328 1.6 8.0 0.00 0.00 0.00 49 1009.9
20260502024524 25 306 1.6 4.8 0.00 0.00 0.00 47 1009.9
20260502023624 25 319 1.6 6.4 0.00 0.00 0.00 45 1009.9
20260502022703 26 323 3.2 8.0 0.00 0.00 0.00 45 1009.8
20260502021803 26 294 1.6 6.4 0.00 0.00 0.00 41 1009.8
20260502020903 27 296 3.2 6.4 0.00 0.00 0.00 39 1009.7
20260502020003 28 328 4.8 9.7 0.00 0.00 0.00 46 1009.7
20260502015405 28 330 4.8 9.7 0.00 0.00 0.00 47 1009.7
20260502014503 28 321 3.2 9.7 0.00 0.00 0.00 47 1009.6
20260502013603 28 312 3.2 12.9 0.00 0.00 0.00 38 1009.6
20260502012703 29 311 3.2 9.7 0.00 0.00 0.00 48 1009.5
20260502011803 29 308 4.8 8.0 0.00 0.00 0.00 48 1009.5
20260502010903 29 309 4.8 8.0 0.00 0.00 0.00 47 1009.5
20260502010003 29 319 4.8 9.7 0.00 0.00 0.00 47 1009.6
20260502005403 29 311 4.8 14.5 0.00 0.00 0.00 47 1009.6
20260502004503 28 347 4.8 12.9 0.00 0.00 0.00 46 1009.6
20260502003603 28 336 4.8 12.9 0.00 0.00 0.00 46 1009.7
20260502002703 29 338 4.8 12.9 0.00 0.00 0.00 47 1009.7
20260502001803 29 328 4.8 12.9 0.00 0.00 0.00 48 1009.7
20260502000903 29 315 4.8 12.9 0.00 0.00 0.00 47 1009.9
20260502000003 29 299 4.8 9.7 0.00 0.00 0.00 47 1010.1
20260501235403 29 275 4.8 12.9 0.00 0.00 0.00 43 1010.1
20260501234503 29 270 3.2 12.9 0.00 0.00 0.00 44 1010.0
20260501233603 28 275 4.8 12.9 0.00 0.00 0.00 45 1010.1
20260501232703 28 265 4.8 11.3 0.00 0.00 0.00 44 1010.2
20260501231803 28 289 4.8 14.5 0.00 0.00 0.00 46 1010.2
20260501230903 28 293 3.2 11.3 0.00 0.00 0.00 47 1010.3
20260501230003 28 331 4.8 12.9 0.00 0.00 0.00 48 1010.4
20260501225424 29 330 6.4 12.9 0.00 0.00 0.00 48 1010.5
20260501224503 29 342 4.8 9.7 0.00 0.00 0.00 49 1010.7
20260501223603 29 344 4.8 14.5 0.00 0.00 0.00 47 1010.9
20260501222703 29 341 4.8 14.5 0.00 0.00 0.00 48 1011.0
20260501221824 29 338 4.8 12.9 0.00 0.00 0.00 48 1011.1
20260501220924 29 338 4.8 16.1 0.00 0.00 0.00 48 1011.3
20260501220003 30 326 4.8 12.9 0.00 0.00 0.00 48 1011.4
20260501215424 29 324 4.8 9.7 0.00 0.00 0.00 46 1011.5
20260501214503 29 320 4.8 14.5 0.00 0.00 0.00 44 1011.6
20260501213603 29 331 4.8 12.9 0.00 0.00 0.00 45 1011.7
20260501212703 28 312 4.8 12.9 0.00 0.00 0.00 44 1011.7
20260501211803 28 311 4.8 16.1 0.00 0.00 0.00 43 1011.8
20260501210903 28 335 4.8 14.5 0.00 0.00 0.00 44 1011.8
20260501210024 28 312 3.2 14.5 0.00 0.00 0.00 44 1011.7
20260501205403 27 298 3.2 12.9 0.00 0.00 0.00 44 1011.9
20260501204503 27 259 3.2 12.9 0.00 0.00 0.00 45 1012.1
20260501203603 27 257 3.2 12.9 0.00 0.00 0.00 44 1012.1
20260501202703 27 286 3.2 9.7 0.00 0.00 0.00 45 1012.1
20260501201824 27 261 3.2 11.3 0.00 0.00 0.00 44 1012.1
20260501200924 27 277 3.2 11.3 0.00 0.00 0.00 44 1012.2
20260501200024 26 302 3.2 8.0 0.00 0.00 0.00 47 1012.4
20260501195424 26 287 1.6 8.0 0.00 0.00 0.00 46 1012.5
20260501194524 26 256 1.6 9.7 0.00 0.00 0.00 48 1012.7
20260501193603 26 318 3.2 12.9 0.00 0.00 0.00 47 1012.8
20260501192703 25 278 3.2 9.7 0.00 0.00 0.00 47 1013.0
20260501191824 25 285 3.2 8.0 0.00 0.00 0.00 49 1013.0
20260501190903 25 253 1.6 8.0 0.00 0.00 0.00 48 1013.0
20260501190003 25 254 1.6 6.4 0.00 0.00 0.00 50 1013.1
20260501185403 24 297 3.2 8.0 0.00 0.00 0.00 51 1013.2
20260501184503 24 280 1.6 8.0 0.00 0.00 0.00 51 1013.3
20260501183603 24 270 1.6 9.7 0.00 0.00 0.00 53 1013.3
20260501182724 24 257 1.6 4.8 0.00 0.00 0.00 51 1013.3
20260501181803 24 296 1.6 6.4 0.00 0.00 0.00 53 1013.5
20260501180903 23 232 1.6 6.4 0.00 0.00 0.00 53 1013.6
20260501180003 23 267 1.6 6.4 0.00 0.00 0.00 53 1013.6
20260501175403 23 278 1.6 6.4 0.00 0.00 0.00 52 1013.6
20260501174503 23 279 0.0 4.8 0.00 0.00 0.00 55 1013.6
20260501173603 23 330 3.2 8.0 0.00 0.00 0.00 58 1013.6
20260501172724 22 317 1.6 8.0 0.00 0.00 0.00 58 1013.7
20260501171803 22 329 1.6 6.4 0.00 0.00 0.00 60 1013.7
20260501170903 22 343 1.6 8.0 0.00 0.00 0.00 59 1013.8
20260501170024 21 342 1.6 6.4 0.00 0.00 0.00 61 1013.8
20260501165403 21 328 3.2 6.4 0.00 0.00 0.00 61 1013.7
20260501164503 21 337 1.6 6.4 0.00 0.00 0.00 61 1013.7
20260501163604 21 343 1.6 8.0 0.00 0.00 0.00 63 1013.7
20260501162703 20 310 1.6 8.0 0.00 0.00 0.00 64 1013.7
20260501161803 20 303 1.6 8.0 0.00 0.00 0.00 64 1013.7
20260501160903 20 324 1.6 4.8 0.00 0.00 0.00 66 1013.6
20260501160003 18 322 1.6 8.0 0.00 0.00 0.00 68 1013.6
20260501155403 18 302 1.6 8.0 0.00 0.00 0.00 69 1013.6
20260501153603 17 297 1.6 8.0 0.00 0.00 0.00 74 1013.6
20260501152724 16 277 1.6 6.4 0.00 0.00 0.00 75 1013.5
20260501151803 16 292 3.2 8.0 0.00 0.00 0.00 78 1013.4
20260501150903 15 265 1.6 6.4 0.00 0.00 0.00 78 1013.5